TimeEDT,TemperatureF,Dew PointF,Humidity,Sea Level PressureIn,VisibilityMPH,Wind Direction,Wind SpeedMPH,Gust SpeedMPH,PrecipitationIn,Events,Conditions,WindDirDegrees,DateUTC
12:56 AM,57.0,57.0,100,29.84,-9999.0,Calm,Calm,-,N/A,,Unknown,0,2012-10-06 04:56:00
1:56 AM,55.9,55.9,100,29.84,-9999.0,Variable,3.5,-,N/A,,Unknown,0,2012-10-06 05:56:00
2:56 AM,55.9,55.9,100,29.81,-9999.0,Calm,Calm,-,N/A,,Unknown,0,2012-10-06 06:56:00
3:56 AM,55.0,55.0,100,29.81,-9999.0,Variable,3.5,-,0.01,,Unknown,0,2012-10-06 07:56:00
4:56 AM,55.0,55.0,100,29.80,-9999.0,Variable,4.6,-,0.01,,Unknown,0,2012-10-06 08:56:00
5:56 AM,55.0,55.0,100,29.79,-9999.0,Variable,3.5,-,N/A,,Unknown,0,2012-10-06 09:56:00
6:56 AM,54.0,54.0,100,29.78,-9999.0,Variable,4.6,-,N/A,,Unknown,0,2012-10-06 10:56:00
7:56 AM,54.0,54.0,100,29.77,-9999.0,Variable,6.9,-,N/A,,Unknown,0,2012-10-06 11:56:00
8:56 AM,54.0,54.0,100,29.76,-9999.0,SSE,4.6,-,N/A,,Unknown,150,2012-10-06 12:56:00
9:56 AM,55.9,55.9,100,29.75,-9999.0,SSE,6.9,-,N/A,,Unknown,160,2012-10-06 13:56:00
10:56 AM,55.9,55.9,100,29.72,-9999.0,Variable,5.8,-,N/A,,Unknown,0,2012-10-06 14:56:00
11:56 AM,59.0,57.9,96,29.70,-9999.0,South,8.1,-,N/A,,Unknown,170,2012-10-06 15:56:00
12:56 PM,62.1,59.0,90,29.65,-9999.0,South,6.9,-,N/A,,Unknown,170,2012-10-06 16:56:00
1:56 PM,64.0,57.9,80,29.62,-9999.0,South,6.9,17.3,N/A,,Unknown,180,2012-10-06 17:56:00
2:56 PM,64.0,57.9,80,29.61,-9999.0,South,8.1,-,N/A,,Unknown,180,2012-10-06 18:56:00
3:56 PM,52.0,50.0,93,29.66,-9999.0,NW,15.0,23.0,0.02,,Unknown,320,2012-10-06 19:56:00
4:56 PM,50.0,48.0,93,29.67,-9999.0,NW,10.4,20.7,0.03,,Unknown,320,2012-10-06 20:56:00
5:56 PM,48.9,46.9,93,29.70,-9999.0,NW,10.4,20.7,N/A,,Unknown,310,2012-10-06 21:56:00
6:56 PM,48.0,44.1,86,29.73,-9999.0,Variable,6.9,-,N/A,,Unknown,0,2012-10-06 22:56:00
7:56 PM,46.9,43.0,86,29.75,-9999.0,NW,10.4,21.9,N/A,,Unknown,310,2012-10-06 23:56:00
8:56 PM,45.0,42.1,90,29.76,-9999.0,NW,6.9,-,N/A,,Unknown,310,2012-10-07 00:56:00
9:56 PM,45.0,39.9,82,29.77,-9999.0,Variable,4.6,-,N/A,,Unknown,0,2012-10-07 01:56:00
10:56 PM,45.0,39.0,80,29.79,-9999.0,Calm,Calm,-,N/A,,Unknown,0,2012-10-07 02:56:00
11:56 PM,46.9,39.0,74,29.81,-9999.0,Variable,4.6,-,N/A,,Unknown,0,2012-10-07 03:56:00